Regional Weather Roundup
Issued by NWS Northern Indiana

Home | Current Version | Previous Version | Text Only | Print | Product List | Glossary Off
Versions: 1 2 3 4 5 6 7 8 9 10 11 12 13 14 15 16 17 18 19 20 21 22 23 24 25 26 27 28 29 30 31 32 33 34 35 36 37 38 39 40 41 42 43 44 45 46 47 48 49 50

000
ASUS43 KIWX 280310
RWRIWX

KIWX WEATHER ROUNDUP
NATIONAL WEATHER SERVICE NORTHERN INDIANA
1100 PM EDT THU AUG 27 2015

NOTE: "FAIR" INDICATES FEW OR NO CLOUDS BELOW 12,000 FEET WITH NO
SIGNIFICANT WEATHER AND/OR OBSTRUCTIONS TO VISIBILITY.

* THESE STATIONS ARE NOT UNDER NWS QUALITY CONTROL. THEY ALSO MAY NOT
  REPORT WEATHER SUCH AS PRECIPITATION OR FOG.

INZ001>027-280400-
NORTHERN INDIANA

CITY           SKY/WX    TMP DP  RH WIND       PRES   REMARKS
VALPARAISO     PTCLDY    58  55  90 NE3       30.15S
MICHIGAN CITY* PTCLDY    55  55 100 CALM      30.15F FOG
LAPORTE*       PTCLDY    58  58 100 CALM      30.16S
KNOX*          PTCLDY    55  55 100 CALM      30.14S
SOUTH BEND     PTCLDY    58  55  90 CALM      30.16S
GOSHEN         PTCLDY    59  54  83 E3        30.16R
MONTICELLO*    PTCLDY    65  58  80 CALM      30.13R
LOGANSPORT*    PTCLDY    57  54  88 E6        30.15R
ROCHESTER*     CLEAR     61  59  94 CALM      30.15S
WARSAW*        PTCLDY    57  54  88 E3        30.16R
ANGOLA*        CLEAR     55  54  94 CALM      30.17F
FORT WAYNE     PTCLDY    60  55  83 E6        30.16S
HUNTINGTON*    CLEAR     60  52  75 CALM      30.15S
PERU/GRISSOM   CLEAR     64  57  80 E5        30.14R
MARION*        CLEAR     60  50  68 E3        30.15S

$$
INZ028>050-280400-
CENTRAL INDIANA

CITY           SKY/WX    TMP DP  RH WIND       PRES   REMARKS
LAFAYETTE      PTCLDY    63  58  83 NE3       30.12R
KOKOMO*        CLEAR     61  54  77 E5        30.15R
MUNCIE*        CLEAR     57  55  93 SE5       30.15S
INDIANAPOLIS   MOCLDY    68  57  68 SE6       30.11S

$$
MIZ043>046-050>051-056>058-064>065-071>073-077>080-280400-
SOUTHWEST LOWER MICHIGAN

CITY           SKY/WX    TMP DP  RH WIND       PRES   REMARKS
BATTLE CREEK   CLEAR     59  53  80 CALM      30.18R
BENTON HARBOR  PTCLDY    56  54  93 CALM      30.16R
COLDWATER*     CLEAR     57  55  93 SE3       30.18S
HILLSDALE*     CLEAR     55  55 100 E3        30.19S
HOLLAND        PTCLDY    57  55  93 CALM      30.17S
GRAND RAPIDS   CLEAR     58  56  93 CALM      30.17R
KALAMAZOO      CLEAR     58  52  80 CALM      30.18R
STURGIS*       CLEAR     57  55  94 E3        30.17S
THREE RIVERS*  FAIR      57  55  91 CALM      30.17S

$$
OHZ001>008-015>018-024>025-280400-
NORTHWEST OHIO

CITY           SKY/WX    TMP DP  RH WIND       PRES   REMARKS
WAUSEON*       FAIR      55  55 100 E3        30.18F
DEFIANCE       CLEAR     60  54  80 E5        30.18S
FINDLAY        CLEAR     62  55  77 E7        30.18S
TOLEDO EXPRESS CLEAR     56  55  97 SE3       30.18F
TOLEDO METCALF CLEAR     60  53  77 E3        30.19F
LIMA           CLEAR     59  56  89 E7        30.18S

$$
AND FOR LAKE MICHIGAN COASTAL AND OPEN LAKE BUOY OBSERVATIONS

STATION/POSITION TEMP    WIND        PRES    VSBY  WAVE
                 AIR SEA DIR/SP/G                  HT/PER
                 (F)     (DEG/KT/KT) (MB)    (MI)  (FT/S)
CALUMET HARBOR    67      80/  4/  6   N/A
MICHIGAN CITY     64      60/  6/  7   N/A
BURNS HARBOR      65     100/  8/  9 1021.0R
SAINT JOSEPH      60      CALM  /  2 1021.0F
SOUTH LAKE BUOY   66 69  140/  6/  8 1020.7F         0
4 MI NW BRIDGMAN  65 71  120/  8/ 10   N/A           0
MICHIGAN CITY     66 71  110/ 10/ 12   N/A           1

$$
&&



USA.gov is the U.S. government's official web portal to all federal, state and local government web resources and services.